Regional Weather Roundup
Issued by NWS Northern Indiana

Home | Current Version | Previous Version | Graphics & Text | Print | Product List | Glossary On
Versions: 1 2 3 4 5 6 7 8 9 10 11 12 13 14 15 16 17 18 19 20 21 22 23 24 25 26 27 28 29 30 31 32 33 34 35 36 37 38 39 40 41 42 43 44 45 46 47 48 49 50
747
ASUS43 KIWX 271110
RWRIWX

KIWX WEATHER ROUNDUP
NATIONAL WEATHER SERVICE NORTHERN INDIANA
700 AM EDT SAT AUG 27 2016

NOTE: "FAIR" INDICATES FEW OR NO CLOUDS BELOW 12,000 FEET WITH NO
SIGNIFICANT WEATHER AND/OR OBSTRUCTIONS TO VISIBILITY.

* THESE STATIONS ARE NOT UNDER NWS QUALITY CONTROL. THEY ALSO MAY NOT
  REPORT WEATHER SUCH AS PRECIPITATION OR FOG.

INZ001>027-271200-
NORTHERN INDIANA

CITY           SKY/WX    TMP DP  RH WIND       PRES   REMARKS
GARY*          TSTM      72  72 100 S3        30.11R
VALPARAISO     TSTM      69  68  96 W12       30.11R
MICHIGAN CITY* FLURRIES  70  64  83 MISG      30.08R
LAPORTE*       TSTM      71  71 100 CALM      30.08R
KNOX*          CLOUDY    70  52  52 SE7       30.05S
SOUTH BEND     CLOUDY    71  65  81 E8        30.07S
GOSHEN         CLOUDY    70  63  78 E6        30.09S
MONTICELLO*    CLOUDY    72  67  86 CALM      30.06R
LOGANSPORT*    CLOUDY    70  70 100 E6        30.07S
ROCHESTER*     CLOUDY    72  72 100 E6        30.07S
WARSAW*        CLOUDY    70  70 100 CALM      30.09S
ANGOLA*        CLEAR     70  61  73 SE6       30.11S
FORT WAYNE     CLOUDY    70  64  81 E6        30.09F
HUNTINGTON*    PTCLDY    69  67  96 CALM      30.09S
PERU/GRISSOM   MOCLDY    71  71 100 SE6       30.06S
MARION*        MOCLDY    69  68  95 SE5       30.09R FOG

$$
INZ028>050-271200-
CENTRAL INDIANA

CITY           SKY/WX    TMP DP  RH WIND       PRES   REMARKS
LAFAYETTE      CLOUDY    69  69 100 E5        30.06S
KOKOMO*        CLOUDY    70  70 100 SE7       30.07R
MUNCIE*        PTCLDY    70  68  93 SE6       30.09S
INDIANAPOLIS   MOCLDY    71  69  93 E3        30.08R

$$
MIZ043>046-050>051-056>058-064>065-071>073-077>080-271200-
SOUTHWEST LOWER MICHIGAN

CITY           SKY/WX    TMP DP  RH WIND       PRES   REMARKS
BATTLE CREEK   CLOUDY    67  62  84 E7        30.12F
BENTON HARBOR  LGT RAIN  67  63  87 NE3       30.08R
COLDWATER*     CLOUDY    68  64  88 E5        30.11S
HILLSDALE*     PTCLDY    67  61  80 E5        30.14R
HOLLAND        CLOUDY    65  61  87 E5        30.11S
GRAND RAPIDS   CLOUDY    64  59  83 E6        30.12S
KALAMAZOO      MOCLDY    68  61  78 CALM      30.11F
STURGIS*       CLOUDY    69  64  84 E6        30.10S
THREE RIVERS*  MOCLDY    70  64  83 E5        30.11R

$$
OHZ001>008-015>018-024>025-271200-
NORTHWEST OHIO

CITY           SKY/WX    TMP DP  RH WIND       PRES   REMARKS
WAUSEON*       MOCLDY    66  63  88 CALM      30.13S
DEFIANCE       CLOUDY    71  61  70 E5        30.12S
FINDLAY        MOCLDY    70  58  65 E6        30.12S
TOLEDO EXPRESS CLOUDY    67  64  90 E3        30.12S
TOLEDO METCALF CLOUDY    69  60  73 E5        30.14R
LIMA           CLOUDY    69  63  81 SE8       30.13R

$$
AND FOR LAKE MICHIGAN COASTAL AND OPEN LAKE BUOY OBSERVATIONS

STATION/POSITION TEMP    WIND        PRES    VSBY  WAVE
                 AIR SEA DIR/SP/G                  HT/PER
                 (F)     (DEG/KT/KT) (MB)    (MI)  (FT/S)
CALUMET HARBOR    69     330/  3/  4 1017.6F
MICHIGAN CITY     70      50/  5/  5   N/A
BURNS HARBOR      71      CALM  / 17 1018.3F
SAINT JOSEPH      68      30/  1/  3 1018.6S
SOUTH LAKE BUOY   71 74  100/ 16/ 17 1017.9R         2/ 4
4 MI NW BRIDGMAN  72 75   50/  6/ 10 1018.1R         1
MICHIGAN CITY     71 74  360/  4/ 10   N/A           1/ 4

$$
&&




USA.gov is the U.S. government's official web portal to all federal, state and local government web resources and services.